TimeCST,TemperatureF,Dew PointF,Humidity,Sea Level PressureIn,VisibilityMPH,Wind Direction,Wind SpeedMPH,Gust SpeedMPH,PrecipitationIn,Events,Conditions,WindDirDegrees,DateUTC
12:15 AM,41.9,32.0,68,30.08,10.0,South,15.0,-,N/A,,Clear,180,2012-11-17 06:15:00
12:35 AM,41.0,32.0,70,30.08,10.0,South,15.0,-,N/A,,Clear,180,2012-11-17 06:35:00
12:55 AM,40.6,32.0,71,30.07,10.0,South,13.8,-,N/A,,Clear,180,2012-11-17 06:55:00
1:15 AM,40.3,32.0,72,30.07,10.0,South,16.1,-,N/A,,Clear,180,2012-11-17 07:15:00
1:35 AM,40.3,32.2,73,30.05,10.0,South,16.1,-,N/A,,Clear,180,2012-11-17 07:35:00
1:55 AM,40.6,32.4,72,30.04,10.0,South,16.1,-,N/A,,Clear,180,2012-11-17 07:55:00
2:15 AM,41.9,33.1,71,30.04,10.0,South,18.4,-,N/A,,Clear,180,2012-11-17 08:15:00
2:35 AM,41.9,33.3,71,30.04,10.0,South,16.1,-,N/A,,Clear,190,2012-11-17 08:35:00
2:55 AM,41.7,33.4,72,30.04,10.0,South,15.0,-,N/A,,Clear,180,2012-11-17 08:55:00
3:15 AM,41.5,33.8,74,30.04,10.0,South,15.0,-,N/A,,Clear,180,2012-11-17 09:15:00
3:35 AM,41.0,33.8,76,30.04,10.0,South,11.5,-,N/A,,Clear,180,2012-11-17 09:35:00
3:55 AM,40.8,33.8,76,30.03,10.0,South,15.0,-,N/A,,Clear,180,2012-11-17 09:55:00
4:15 AM,41.4,34.2,76,30.03,10.0,South,15.0,-,N/A,,Clear,180,2012-11-17 10:15:00
4:35 AM,41.0,34.0,76,30.02,10.0,South,16.1,-,N/A,,Clear,180,2012-11-17 10:35:00
4:55 AM,41.0,34.2,77,30.03,10.0,South,16.1,-,N/A,,Clear,190,2012-11-17 10:55:00
5:15 AM,40.6,34.0,77,30.02,10.0,South,16.1,-,N/A,,Clear,180,2012-11-17 11:15:00
5:35 AM,41.0,34.3,77,30.03,10.0,South,15.0,-,N/A,,Clear,190,2012-11-17 11:35:00
5:55 AM,41.0,35.6,81,30.02,10.0,South,15.0,19.6,N/A,,Clear,190,2012-11-17 11:55:00
6:15 AM,40.6,34.5,79,30.02,10.0,South,16.1,-,N/A,,Clear,190,2012-11-17 12:15:00
6:35 AM,40.5,34.3,79,30.02,10.0,SSW,13.8,-,N/A,,Clear,200,2012-11-17 12:35:00
6:55 AM,40.1,34.2,79,30.03,10.0,South,12.7,-,N/A,,Clear,190,2012-11-17 12:55:00
7:15 AM,39.2,33.8,81,30.02,10.0,South,12.7,-,N/A,,Clear,190,2012-11-17 13:15:00
7:35 AM,38.7,33.8,83,30.03,10.0,SSW,13.8,-,N/A,,Clear,200,2012-11-17 13:35:00
7:55 AM,37.9,33.4,84,30.03,10.0,SSW,12.7,-,N/A,,Clear,200,2012-11-17 13:55:00
8:15 AM,38.3,34.0,84,30.04,10.0,SSW,12.7,-,N/A,,Clear,200,2012-11-17 14:15:00
8:35 AM,39.4,34.2,82,30.04,10.0,SSW,12.7,-,N/A,,Clear,200,2012-11-17 14:35:00
8:55 AM,40.8,34.5,78,30.04,10.0,South,12.7,-,N/A,,Clear,190,2012-11-17 14:55:00
9:15 AM,42.6,35.1,75,30.04,10.0,SSW,12.7,-,N/A,,Clear,210,2012-11-17 15:15:00
9:35 AM,44.1,34.9,70,30.04,10.0,SSW,15.0,-,N/A,,Clear,200,2012-11-17 15:35:00
9:55 AM,45.7,35.1,66,30.04,10.0,SSW,16.1,20.7,N/A,,Clear,210,2012-11-17 15:55:00
10:15 AM,47.3,34.9,62,30.04,10.0,SW,12.7,17.3,N/A,,Clear,220,2012-11-17 16:15:00
10:35 AM,49.8,34.7,56,30.05,10.0,SSW,12.7,-,N/A,,Clear,210,2012-11-17 16:35:00
11:55 AM,59.4,32.2,36,30.02,10.0,SSW,10.4,-,N/A,,Clear,210,2012-11-17 17:55:00
12:15 PM,59.9,32.5,36,30.01,10.0,South,13.8,-,N/A,,Clear,190,2012-11-17 18:15:00
12:35 PM,61.2,32.0,33,30.00,10.0,SSW,12.7,-,N/A,,Clear,200,2012-11-17 18:35:00
12:55 PM,61.9,31.8,32,29.99,10.0,SSW,9.2,-,N/A,,Clear,200,2012-11-17 18:55:00
1:15 PM,63.5,31.1,30,29.98,10.0,SSW,9.2,-,N/A,,Clear,200,2012-11-17 19:15:00
1:35 PM,64.6,29.7,27,29.98,10.0,SW,10.4,16.1,N/A,,Clear,230,2012-11-17 19:35:00
1:55 PM,65.1,28.9,26,29.98,10.0,SW,11.5,-,N/A,,Clear,220,2012-11-17 19:55:00
2:15 PM,65.5,28.4,25,29.98,10.0,SW,9.2,-,N/A,,Clear,220,2012-11-17 20:15:00
2:35 PM,65.7,30.0,26,29.97,10.0,SSW,8.1,-,N/A,,Clear,210,2012-11-17 20:35:00
2:55 PM,66.0,30.4,26,29.97,10.0,South,10.4,-,N/A,,Clear,190,2012-11-17 20:55:00
3:15 PM,65.7,30.2,27,29.97,10.0,South,10.4,-,N/A,,Clear,180,2012-11-17 21:15:00
3:35 PM,66.2,29.1,25,29.97,10.0,South,10.4,-,N/A,,Clear,190,2012-11-17 21:35:00
3:55 PM,64.6,30.4,28,29.98,10.0,South,10.4,-,N/A,,Clear,170,2012-11-17 21:55:00
4:15 PM,63.5,30.7,29,29.98,10.0,South,11.5,-,N/A,,Clear,180,2012-11-17 22:15:00
4:35 PM,61.9,30.7,31,29.99,10.0,SSW,4.6,-,N/A,,Clear,200,2012-11-17 22:35:00
4:55 PM,59.2,31.3,35,29.99,10.0,South,8.1,-,N/A,,Clear,180,2012-11-17 22:55:00
5:15 PM,54.1,31.6,42,29.99,10.0,South,9.2,-,N/A,,Clear,180,2012-11-17 23:15:00
5:35 PM,53.1,31.8,44,30.00,10.0,South,5.8,-,N/A,,Clear,170,2012-11-17 23:35:00
5:55 PM,48.9,31.3,51,30.01,10.0,South,9.2,-,N/A,,Clear,170,2012-11-17 23:55:00
6:15 PM,45.7,31.6,58,30.01,10.0,South,9.2,-,N/A,,Clear,170,2012-11-18 00:15:00
6:35 PM,45.7,32.0,59,30.01,10.0,South,8.1,-,N/A,,Clear,180,2012-11-18 00:35:00
6:55 PM,44.8,32.0,61,30.02,10.0,South,9.2,-,N/A,,Clear,180,2012-11-18 00:55:00
7:15 PM,43.7,32.0,63,30.02,10.0,South,9.2,-,N/A,,Clear,180,2012-11-18 01:15:00
7:35 PM,43.7,32.0,63,30.02,10.0,South,9.2,-,N/A,,Clear,190,2012-11-18 01:35:00
7:55 PM,43.7,32.0,63,30.02,10.0,South,9.2,-,N/A,,Clear,190,2012-11-18 01:55:00
8:15 PM,44.8,32.4,62,30.02,10.0,SSW,10.4,-,N/A,,Clear,200,2012-11-18 02:15:00
8:35 PM,45.3,32.4,61,30.02,10.0,SSW,9.2,-,N/A,,Clear,200,2012-11-18 02:35:00
8:55 PM,42.6,32.0,66,30.01,10.0,South,10.4,-,N/A,,Clear,190,2012-11-18 02:55:00
9:15 PM,42.4,32.0,67,30.02,10.0,SSW,8.1,-,N/A,,Clear,200,2012-11-18 03:15:00
9:35 PM,42.1,32.0,67,30.02,10.0,SSW,8.1,-,N/A,,Clear,200,2012-11-18 03:35:00
9:55 PM,42.6,32.2,67,30.02,10.0,SSW,9.2,-,N/A,,Clear,200,2012-11-18 03:55:00
10:15 PM,41.9,32.0,68,30.01,10.0,SSW,6.9,-,N/A,,Clear,200,2012-11-18 04:15:00
10:35 PM,42.6,32.0,66,30.02,10.0,SSW,8.1,-,N/A,,Clear,200,2012-11-18 04:35:00
10:55 PM,43.3,32.7,66,30.01,10.0,SSW,9.2,-,N/A,,Clear,200,2012-11-18 04:55:00
11:15 PM,44.1,32.5,64,30.01,10.0,SSW,10.4,-,N/A,,Clear,210,2012-11-18 05:15:00
11:35 PM,43.9,32.4,64,30.01,10.0,SSW,11.5,-,N/A,,Clear,210,2012-11-18 05:35:00
11:55 PM,42.8,32.2,66,30.01,10.0,SW,9.2,-,N/A,,Clear,220,2012-11-18 05:55:00